Погода в Нижнем Ландехе

Россия / Ивановская область     56°39′33″N   42°25′27″E
темп.,
°C
ветер,
м/с
пор.,
м/с
влажн.,
%
обл.,
%
осадки,
мм/ч
давл.,
гПа
погр.,
м
22 апреля, чт
чт2200:00+3ююз3991100 0.0 1013484
03:00+3ююз4993100 0.0 1014473
06:00+4ююз389399 0.0 1015478
09:00+5ююз4888100 0.1 1016777
12:00+8ююз5770100 0.1 10171184
15:00+10ююз486494 0.1 10171422
18:00+10ююз376764 0.1 1017351
21:00+6ю311875 0.1 1019235
23 апреля, пт
пт2300:00+5ю311925 0.0 1019248
03:00+5ююв310915 0.0 1019197
06:00+5ююв4118762 0.0 1019287
09:00+12ю510647 0.0 1019617
12:00+15ююз685438 0.4 10181650
15:00+13ююв41060100 1.1 1018575
18:00+13ююв5105972 0.1 1017751
21:00+9юв4128052 0.1 1017245
24 апреля, сб
сб2400:00+7юв311805 0.0 1015255
03:00+6вюв310845 0.0 1013196
06:00+7вюв4128368 0.0 1011347
09:00+11юв6127682 0.4 10101080
12:00+13ююв61167100 1.0 10071956
15:00+11вюв6117993 3.1 10051034
18:00+4з4995100 6.6 1007536
21:00+2зсз41097100 10.1 1008461
25 апреля, вс
вс2500:00+3з389399 0.3 1007606
03:00+1зюз289714 0.3 1007219
06:00+2зюз39925 0.0 1008304
09:00+6з58675 0.0 10081004
12:00+8зюз5749100 0.0 10092208
15:00+9зюз5843100 0.1 10092425
18:00+7зюз475693 0.3 1010632
21:00+3юз288290 0.6 1011190
26 апреля, пн
пн2600:00+2юз38896 0.0 1012218
03:000юз38922 0.0 1013226
06:00+1юз39885 0.0 1014346
09:00+5зюз47575 0.0 10131229
12:00+7юз4644100 0.0 10131927
15:00+8юз4646100 0.3 10131889
18:00+8ююз35534 0.0 1012718
21:00+3ююв2268100 0.0 101114